{"data":{"norad_id":59810,"intl_designator":"2024-095A","name":"2024-095A","alt_names":[],"object_type":"PAYLOAD","status":"ACTIVE","operator":null,"country":"PRC","launch_date":"2024-05-21","launch_site_code":"JSC","launch_vehicle":null,"mission":null,"orbit_class":"UNKNOWN","rcs_meters":null,"size_class":null,"mass_kg":null,"dimensions":null,"purposes":[],"wikipedia_slug":null,"has_3d_model":false,"image_url":null,"decayed_at":null,"tle_current":{"epoch":"2026-09-22T22:59:13.212384Z","epoch_age_seconds":60306,"freshness":"FRESH","line1":"1 59810U 24095A   26265.95779181  .00002956  00000+0  18419-3 0  9998","line2":"2 59810  97.5282 343.3476 0004506  97.3041 262.8701 15.10316227128901","mean_motion":15.10316227,"eccentricity":0.0004506,"inclination_deg":97.5282,"raan_deg":343.3476,"arg_perigee_deg":97.3041,"mean_anomaly_deg":262.8701,"bstar":0.00018419,"rev_number":12890,"period_min":95.344271236516,"perigee_km":532.1196639768,"apogee_km":538.34999466939,"semimajor_km":6913.3718293231,"source":"CELESTRAK","updated_at":"2026-09-23T09:00:19.590282Z"}}}